Wetbulb
33.83 28.42 25.76 30.16 32.27 31.75 30.32 28.19 27.82 29.29 30.88 28.26 28.04 27.21 31.49 31.30 28.04 27.13 26.83 26.56 26.62 27.16 28.00 29.87 30.96 30.95 31.26 31.41 31.94 32.16 31.71 31.01 30.60 28.98 28.33 27.85 27.53 28.01 28.89 30.29 32.30 32.14 32.42 33.32
30.21 26.19 32.44 35.22 34.06 32.10 30.05 28.07 26.95 29.50 30.29 28.29 26.41 27.05 30.28 30.34 27.97 27.17 26.70 26.35 26.13 26.07 26.76 29.20 29.59 29.34 29.72 29.75 30.15 30.70 30.97 30.16 29.61 28.96 27.68 27.59 26.87 27.09 28.00 29.96 30.38 31.24 31.59 32.77
29.11 31.32 35.20 34.29 30.81 29.21 28.71 27.53 26.70 27.92 28.13 26.48 24.99 23.87 25.56 27.11 27.14 27.74 27.42 26.80 26.90 25.59 25.51 25.91 27.82 26.96 27.83 27.92 28.43 29.80 29.62 29.14 28.83 28.51 27.90 27.56 27.52 27.44 27.41 28.06 28.01 29.23 30.15 31.78
32.04 34.56 32.84 31.89 30.13 31.32 27.80 30.76 29.69 27.69 25.38 21.16 24.24 15.88 24.12 26.17 26.05 27.25 27.35 26.68 25.90 24.63 26.10 26.90 26.85 25.88 26.14 27.50 27.08 28.48 28.71 28.43 28.64 28.01 26.77 25.50 25.57 25.29 26.10 26.05 27.44 27.66 28.91 30.01
30.29 29.80 30.61 29.60 30.62 33.40 29.88 31.10 28.84 27.13 24.07 18.96 22.19 14.86 22.47 23.65 24.26 25.34 26.26 26.48 26.03 25.03 25.48 26.37 26.49 28.18 27.38 27.71 26.01 26.41 27.05 27.64 27.83 27.41 26.43 25.24 24.50 24.97 25.45 25.68 25.55 26.00 26.91 28.53
31.00 33.96 32.72 31.78 31.44 32.81 31.55 29.29 28.29 26.06 23.59 13.37 19.69 20.21 20.42 20.95 22.24 23.54 24.23 25.28 26.82 25.37 26.64 26.98 27.42 27.64 26.17 26.40 25.83 25.47 26.15 26.82 27.12 26.60 26.60 25.62 24.74 24.38 24.22 24.64 24.51 25.39 26.58 27.27
29.45 29.90 31.99 32.69 28.73 31.33 30.54 28.07 20.19 18.04 15.29 15.08 19.23 17.58 21.77 23.41 23.74 22.67 24.27 24.60 23.10 23.26 25.22 26.41 26.44 26.37 26.21 25.74 25.89 25.87 25.85 25.78 25.83 25.98 25.75 25.57 25.42 24.95 24.52 24.64 24.66 25.08 25.09 25.46
24.36 21.34 28.97 31.91 30.54 27.51 27.84 28.67 22.76 15.83 10.71 12.69 20.41 14.69 22.59 21.74 16.86 13.28 17.77 15.56 23.00 24.01 25.38 24.55 24.81 25.18 24.89 26.47 26.14 25.65 25.55 25.06 24.75 23.79 24.42 24.51 24.41 23.45 24.59 25.36 25.83 25.75 24.48 23.96
25.29 26.48 30.04 31.53 31.83 31.14 27.18 25.15 26.72 16.78 11.87 8.58 12.80 18.63 23.44 23.77 20.44 18.25 17.12 25.38 24.31 22.69 22.85 22.95 23.74 23.85 23.89 23.69 24.29 24.20 23.81 24.01 23.80 23.56 22.25 21.77 21.97 23.68 23.70 24.81 25.84 25.24 26.61 27.20
29.25 21.10 29.23 28.77 31.41 30.49 28.73 28.80 22.96 19.98 10.07 6.92 9.46 10.95 17.00 18.19 18.40 19.58 17.41 23.15 22.76 21.84 22.50 23.05 22.37 22.51 22.75 22.04 22.41 23.28 22.25 18.43 17.55 21.04 20.67 22.18 21.06 21.36 19.19 18.99 22.69 21.61 26.54 27.35
29.28 26.06 24.38 28.00 24.77 24.18 24.63 23.69 23.49 23.21 15.32 7.76 5.65 12.49 13.83 15.78 19.21 19.10 20.01 23.44 19.31 19.32 19.27 20.03 20.61 20.24 14.83 13.93 12.53 15.12 13.74 10.85 15.35 17.67 17.94 20.12 21.30 21.33 16.68 19.62 20.69 25.31 26.04 25.89
30.96 26.23 17.94 17.00 20.88 26.46 24.95 20.76 22.38 17.61 10.57 7.45 7.83 13.11 8.87 8.91 14.40 18.55 21.38 24.60 18.82 20.36 18.29 17.47 17.51 14.17 11.66 11.08 12.18 8.21 8.25 5.54 13.06 13.87 15.37 18.41 19.00 16.65 12.78 14.76 17.40 22.57 25.10 25.97
30.14 24.28 17.02 18.51 23.64 26.18 23.95 22.87 20.07 18.19 17.72 8.77 10.18 13.90 13.14 14.05 11.35 16.42 15.76 17.31 20.57 21.09 18.07 13.38 11.32 12.15 10.01 9.21 9.48 9.93 6.76 8.26 10.44 9.38 13.77 15.67 16.39 16.55 15.42 14.14 14.05 17.89 25.31 25.97
33.48 25.69 14.70 15.53 18.87 20.62 18.33 21.76 22.90 21.95 11.40 9.88 13.10 12.96 17.70 16.51 15.08 15.49 16.56 17.91 12.86 14.91 11.06 7.31 9.30 9.29 9.56 9.08 6.99 9.72 10.21 6.07 7.80 6.96 10.42 12.57 13.86 15.95 16.11 15.63 15.32 18.92 23.75 25.07
30.48 22.96 21.43 18.74 17.72 19.38 13.94 21.67 22.88 21.64 15.84 20.13 12.73 17.23 20.30 21.93 19.86 19.27 14.64 9.35 11.04 10.54 9.44 8.53 7.64 9.12 8.03 11.11 10.31 9.89 11.27 8.04 3.68 3.45 7.27 10.66 10.58 8.82 8.94 10.40 10.74 13.29 19.50 20.67
27.52 20.31 22.15 17.62 16.97 13.07 15.27 18.17 17.45 22.13 14.77 14.48 9.62 14.37 20.26 6.08 -0.66 8.05 12.67 5.87 7.43 6.93 7.43 8.35 5.53 7.33 9.25 10.05 11.71 12.90 11.65 12.46 3.32 1.72 6.16 4.43 4.17 7.38 10.38 11.00 10.00 11.41 13.65 15.40
25.17 19.33 21.09 17.05 14.49 17.18 14.08 12.99 17.21 18.25 18.42 24.07 16.46 22.81 17.09 10.98 6.17 8.75 7.76 19.06 14.01 11.14 12.60 7.19 7.72 7.48 10.51 11.33 18.70 13.56 14.59 11.61 11.24 9.89 11.84 14.04 13.56 14.57 14.84 15.89 15.24 14.30 13.45 14.07
19.38 16.93 18.03 10.59 10.00 7.89 12.72 0.38 13.09 20.36 18.31 20.51 12.99 11.32 12.10 11.06 5.85 12.79 16.58 13.21 8.33 7.48 6.29 6.86 8.39 14.59 12.94 14.80 13.94 17.44 19.37 19.35 15.91 14.09 16.60 17.60 16.97 17.71 18.26 17.65 16.69 16.04 15.68 16.07
21.53 20.22 10.88 9.90 2.70 11.51 14.75 6.82 12.55 15.78 15.34 19.93 22.95 7.53 2.87 2.34 18.38 17.68 16.73 16.14 8.89 6.32 6.45 6.63 6.18 6.67 10.75 12.06 14.26 16.97 16.13 17.77 17.94 16.32 15.72 17.11 18.28 17.91 18.20 18.14 17.36 17.12 17.47 18.27
24.49 21.42 15.70 -1.26 3.50 3.14 9.23 11.75 14.12 14.93 13.40 8.67 6.50 11.21 9.53 16.24 12.91 14.10 17.74 21.18 7.27 5.99 6.92 9.75 10.33 11.31 11.51 11.72 15.56 17.69 16.94 16.59 15.81 16.93 17.25 17.47 17.48 17.31 16.94 18.08 18.75 19.89 19.71 21.16
18.47 18.81 11.55 2.18 -2.13 7.77 11.22 17.68 19.69 14.68 13.66 6.27 2.95 7.59 16.05 16.21 14.09 7.42 5.78 7.26 7.19 9.91 10.62 10.51 9.87 9.29 10.15 13.52 15.15 15.24 14.86 13.56 15.52 15.87 15.82 15.66 15.88 15.39 15.98 17.17 18.09 18.46 18.53 19.90
15.67 12.71 9.54 6.13 3.71 5.88 16.58 19.00 17.10 18.16 13.03 15.41 10.34 5.89 10.09 4.00 3.16 5.50 6.46 8.20 10.62 10.04 12.74 15.16 14.27 14.55 14.39 15.84 15.05 14.28 13.39 14.33 14.15 13.66 13.05 13.04 12.75 14.21 16.08 14.52 15.22 14.22 14.80 15.23
13.15 17.69 14.77 16.48 16.06 17.86 17.61 20.27 14.54 12.99 16.95 15.21 15.22 11.57 15.07 13.42 12.33 14.07 14.55 15.33 15.90 15.29 14.81 15.10 13.60 13.43 13.71 13.34 13.57 12.19 12.37 12.97 11.60 9.00 8.53 9.85 12.61 14.70 15.25 13.70 14.43 14.12 13.02 13.77
17.89 20.10 17.57 19.12 19.91 18.86 17.56 16.63 15.65 14.91 19.81 20.12 20.06 17.95 18.43 16.98 15.96 14.78 15.16 14.71 14.26 14.52 13.66 13.12 11.67 10.71 10.63 11.44 11.91 11.15 11.34 10.63 6.31 6.34 8.93 11.50 12.30 12.93 13.63 15.25 15.66 15.43 14.81 14.63
20.00 20.47 19.19 19.51 22.14 19.98 22.11 21.86 22.02 18.92 17.30 19.25 17.74 17.65 17.83 16.91 14.61 13.94 14.85 14.39 13.76 13.26 12.54 11.17 9.75 9.61 8.90 9.05 8.43 7.04 8.27 7.10 6.13 7.89 10.00 10.96 12.24 11.81 13.14 14.44 14.60 16.59 18.14 19.65
21.88 20.57 18.81 18.71 23.74 23.69 24.84 25.21 23.83 20.74 19.89 19.08 18.13 16.67 17.27 17.27 15.22 14.93 13.79 13.23 12.19 11.03 9.78 8.34 7.05 6.40 5.83 4.33 4.10 3.40 1.40 2.71 2.75 6.23 8.49 9.13 10.35 11.44 11.88 11.37 11.39 17.03 19.81 21.63
MSLP
1015.05 1015.37 1014.76 1014.45 1014.35 1014.73 1015.02 1015.42 1015.50 1015.46 1015.65 1015.78 1015.64 1015.62 1015.11 1015.03 1015.62 1016.24 1016.72 1017.25 1017.62 1017.89 1018.12 1018.03 1017.79 1017.65 1017.72 1018.07 1018.39 1018.94 1019.40 1019.86 1020.05 1020.43 1020.71 1021.00 1021.24 1021.26 1021.30 1021.20 1021.05 1021.05 1021.01 1020.88
1015.29 1013.96 1013.90 1014.06 1014.59 1014.89 1015.12 1015.42 1015.65 1015.80 1016.00 1016.21 1016.15 1015.62 1015.13 1015.20 1015.59 1016.15 1016.66 1017.12 1017.52 1017.84 1018.06 1018.17 1018.15 1018.27 1018.38 1018.59 1018.90 1019.28 1019.65 1019.90 1020.13 1020.37 1020.69 1020.92 1021.15 1021.27 1021.36 1021.31 1021.24 1021.14 1021.09 1021.01
1013.62 1013.09 1012.96 1013.68 1014.30 1014.98 1015.10 1015.40 1015.82 1016.20 1016.63 1017.04 1017.21 1015.83 1015.12 1015.12 1015.57 1016.12 1016.58 1016.98 1017.36 1017.70 1017.94 1018.13 1018.33 1018.70 1018.89 1019.09 1019.25 1019.47 1019.69 1019.98 1020.19 1020.42 1020.70 1020.94 1021.14 1021.21 1021.32 1021.34 1021.36 1021.34 1021.19 1021.08
1014.03 1012.98 1013.18 1013.63 1013.86 1014.31 1015.04 1015.10 1015.79 1016.73 1017.63 1018.53 1018.38 1017.15 1015.70 1015.39 1015.76 1016.08 1016.55 1017.02 1017.25 1017.56 1017.92 1018.09 1018.34 1018.72 1018.98 1019.17 1019.38 1019.58 1019.79 1020.02 1020.17 1020.43 1020.75 1021.04 1021.21 1021.36 1021.31 1021.35 1021.38 1021.34 1021.18 1021.06
1013.22 1012.99 1013.13 1013.57 1013.44 1013.93 1015.01 1015.41 1016.30 1017.49 1018.57 1019.32 1019.21 1019.45 1015.75 1015.98 1016.06 1016.04 1016.57 1017.06 1017.31 1017.57 1017.94 1018.18 1018.53 1018.68 1018.89 1019.21 1019.50 1019.69 1019.87 1020.10 1020.15 1020.46 1020.66 1020.94 1021.17 1021.19 1021.18 1021.30 1021.32 1021.28 1021.24 1021.12
1013.80 1013.48 1013.35 1013.37 1014.02 1014.21 1015.56 1016.31 1017.44 1018.47 1019.55 1020.15 1018.87 1019.24 1016.11 1016.31 1015.82 1015.97 1016.66 1017.16 1017.46 1017.86 1018.20 1018.37 1018.50 1018.70 1019.02 1019.22 1019.60 1019.77 1019.83 1019.93 1020.08 1020.40 1020.61 1020.79 1020.98 1021.11 1021.23 1021.28 1021.31 1021.22 1021.24 1021.23
1013.87 1013.95 1013.93 1013.75 1014.67 1015.59 1015.55 1016.46 1018.02 1019.44 1020.40 1019.66 1019.32 1019.59 1015.93 1015.87 1016.07 1016.37 1016.89 1017.44 1017.70 1018.19 1018.51 1018.80 1018.98 1019.05 1019.14 1019.32 1019.58 1019.63 1019.85 1019.88 1020.05 1020.32 1020.54 1020.71 1020.79 1020.95 1021.05 1021.11 1021.16 1021.13 1021.25 1021.17
1013.12 1014.15 1013.82 1013.83 1014.20 1014.68 1015.52 1015.74 1016.44 1017.99 1019.39 1019.66 1019.90 1018.82 1015.84 1015.98 1016.60 1017.06 1017.74 1017.86 1018.13 1018.48 1018.80 1019.04 1019.26 1019.35 1019.33 1019.41 1019.27 1019.65 1019.62 1019.88 1020.05 1020.29 1020.47 1020.63 1020.71 1020.79 1020.86 1020.89 1020.91 1020.93 1020.98 1020.95
1012.36 1013.21 1013.84 1014.11 1014.46 1014.86 1015.96 1016.13 1016.22 1017.88 1019.67 1020.16 1018.89 1017.65 1016.04 1016.56 1017.30 1017.93 1018.32 1018.41 1018.44 1018.79 1019.09 1019.20 1019.40 1019.50 1019.54 1019.78 1019.53 1019.76 1019.76 1019.94 1020.06 1020.22 1020.42 1020.55 1020.58 1020.68 1020.71 1020.64 1020.64 1020.62 1020.62 1020.59
1011.60 1013.11 1013.93 1014.71 1015.03 1015.41 1015.28 1015.34 1016.61 1017.82 1019.06 1019.97 1018.87 1018.52 1017.20 1017.46 1017.94 1018.35 1018.71 1018.54 1018.58 1018.91 1019.37 1019.82 1020.05 1020.00 1019.93 1019.91 1020.06 1020.08 1020.02 1020.23 1020.14 1020.18 1020.39 1020.45 1020.46 1020.54 1020.58 1020.57 1020.45 1020.41 1020.38 1020.41
1011.32 1012.44 1014.46 1014.99 1015.05 1014.92 1015.77 1015.73 1016.02 1016.45 1017.92 1018.54 1019.19 1017.20 1016.26 1017.00 1017.54 1018.27 1018.71 1018.73 1018.98 1019.44 1020.03 1020.47 1020.74 1020.71 1020.62 1020.16 1020.40 1020.54 1020.35 1020.58 1020.45 1020.47 1020.42 1020.42 1020.36 1020.40 1020.47 1020.41 1020.27 1020.19 1020.22 1020.24
1011.08 1012.23 1013.88 1014.78 1015.15 1015.16 1015.17 1015.41 1015.55 1016.17 1018.29 1018.77 1019.12 1017.32 1016.80 1017.51 1017.96 1018.09 1018.61 1018.89 1019.23 1019.73 1020.40 1021.07 1021.07 1021.25 1020.93 1020.65 1020.67 1020.77 1020.46 1020.61 1020.37 1020.39 1020.47 1020.35 1020.23 1020.21 1020.32 1020.26 1020.06 1020.02 1019.96 1019.82
1010.85 1011.85 1013.79 1015.24 1015.68 1015.33 1015.25 1015.56 1015.79 1016.14 1017.08 1018.22 1018.64 1017.44 1017.25 1018.28 1018.62 1018.66 1018.91 1019.41 1019.72 1020.34 1020.94 1021.48 1021.55 1021.62 1021.41 1021.10 1021.00 1020.94 1020.56 1020.38 1020.25 1020.36 1020.37 1020.22 1020.08 1020.04 1020.12 1020.02 1019.83 1019.70 1019.53 1019.42
1010.06 1011.31 1012.50 1013.40 1013.53 1013.88 1015.12 1015.11 1015.47 1015.59 1016.93 1017.54 1017.15 1017.17 1017.58 1018.43 1018.99 1019.20 1019.40 1019.64 1020.17 1021.00 1021.31 1021.70 1021.99 1021.92 1021.63 1021.47 1021.10 1020.80 1020.63 1020.25 1020.26 1020.29 1020.28 1020.18 1019.96 1019.70 1019.71 1019.73 1019.63 1019.39 1019.20 1019.14
1009.92 1011.75 1012.95 1013.76 1014.18 1014.61 1015.01 1014.91 1015.18 1015.26 1015.76 1016.05 1016.56 1016.87 1017.22 1017.78 1018.57 1019.27 1019.69 1020.37 1020.91 1021.35 1021.69 1021.60 1022.12 1022.10 1021.57 1021.39 1021.04 1020.37 1020.39 1020.19 1019.97 1020.22 1020.11 1019.79 1019.61 1019.70 1019.60 1019.51 1019.29 1019.07 1018.85 1018.79
1010.64 1012.56 1013.16 1014.40 1014.90 1015.51 1015.96 1015.74 1015.49 1015.66 1015.74 1015.83 1016.61 1016.81 1016.94 1017.97 1018.69 1019.63 1020.30 1020.96 1021.52 1021.42 1021.67 1021.54 1022.04 1021.80 1021.39 1021.21 1020.98 1020.36 1019.82 1019.79 1019.86 1019.57 1019.77 1019.72 1019.43 1019.22 1019.19 1018.96 1018.74 1018.57 1018.58 1018.57
1011.53 1012.93 1013.85 1015.30 1016.13 1016.19 1016.23 1015.38 1015.51 1015.21 1014.83 1015.06 1016.39 1015.46 1016.89 1018.55 1019.51 1019.49 1020.16 1020.67 1021.04 1021.13 1021.15 1021.54 1021.85 1021.51 1021.03 1020.60 1020.28 1020.15 1019.75 1019.38 1019.27 1019.27 1019.03 1019.04 1018.73 1018.61 1018.35 1018.14 1018.15 1018.08 1018.06 1018.04
1012.15 1013.33 1014.45 1016.14 1016.55 1016.83 1015.01 1015.18 1015.16 1014.79 1014.69 1015.19 1015.88 1016.46 1017.15 1017.90 1018.88 1018.82 1019.46 1020.14 1020.84 1021.17 1021.22 1021.58 1021.36 1021.16 1020.82 1020.41 1020.08 1019.69 1019.48 1019.30 1018.83 1018.68 1018.68 1018.54 1018.28 1018.06 1017.74 1017.61 1017.56 1017.49 1017.41 1017.37
1012.45 1013.23 1015.39 1016.73 1017.67 1016.06 1015.22 1015.58 1015.43 1015.18 1014.46 1014.38 1015.41 1016.86 1017.83 1018.54 1018.71 1018.97 1019.18 1019.71 1020.46 1020.94 1020.96 1021.04 1021.22 1021.05 1020.62 1020.31 1019.98 1019.55 1019.25 1019.05 1018.83 1018.46 1018.29 1018.13 1017.93 1017.71 1017.49 1017.26 1017.11 1016.93 1016.83 1016.62
1013.06 1013.47 1015.01 1017.42 1017.60 1016.56 1015.01 1014.52 1014.90 1015.40 1015.23 1015.13 1015.93 1016.96 1018.15 1018.58 1019.20 1019.04 1019.14 1019.63 1020.43 1020.46 1020.66 1020.88 1020.92 1020.70 1020.64 1020.09 1019.90 1019.60 1019.30 1019.12 1018.90 1018.68 1018.27 1017.94 1017.72 1017.52 1017.27 1016.99 1016.64 1016.33 1016.14 1015.80
1013.95 1014.45 1015.49 1016.69 1017.20 1015.46 1014.41 1014.45 1015.18 1015.42 1016.12 1015.76 1016.59 1016.98 1017.71 1018.32 1018.72 1018.86 1019.04 1019.83 1020.09 1020.26 1020.56 1020.59 1020.62 1020.73 1020.46 1020.07 1019.96 1019.84 1019.69 1019.48 1019.10 1018.77 1018.35 1017.94 1017.68 1017.37 1016.98 1016.69 1016.45 1016.15 1015.84 1015.43
1014.05 1014.78 1015.64 1016.34 1016.22 1015.43 1014.36 1015.06 1015.12 1014.86 1015.51 1015.92 1016.71 1017.05 1017.65 1017.84 1018.64 1018.84 1019.21 1019.76 1020.08 1020.14 1020.28 1020.36 1020.40 1020.41 1020.23 1020.34 1020.29 1020.01 1019.88 1019.70 1019.38 1018.95 1018.53 1017.97 1017.71 1017.31 1016.78 1016.62 1016.25 1015.94 1015.57 1015.21
1014.38 1013.73 1014.11 1014.30 1013.87 1013.56 1013.49 1013.74 1013.99 1014.40 1014.96 1015.81 1016.19 1016.57 1016.86 1017.60 1018.27 1018.70 1019.22 1019.58 1019.70 1019.74 1020.02 1020.13 1020.46 1020.46 1020.41 1020.47 1020.44 1020.32 1020.10 1019.83 1019.56 1019.18 1018.62 1017.93 1017.51 1017.08 1016.65 1016.37 1016.02 1015.74 1015.38 1015.14
1013.45 1013.22 1013.27 1013.29 1012.91 1012.93 1013.20 1013.51 1014.03 1014.56 1014.61 1014.95 1015.40 1016.12 1016.67 1017.21 1017.86 1018.55 1019.03 1019.13 1019.27 1019.76 1020.06 1020.33 1020.51 1020.57 1020.67 1020.78 1020.73 1020.67 1020.38 1020.12 1019.90 1019.35 1018.73 1017.99 1017.53 1017.10 1016.59 1016.24 1015.92 1015.59 1015.18 1014.75
1012.87 1013.04 1012.74 1012.58 1012.15 1012.50 1012.51 1012.76 1013.20 1014.06 1014.47 1014.92 1015.51 1015.95 1016.39 1016.95 1017.84 1018.33 1018.56 1019.04 1019.67 1020.06 1020.27 1020.55 1020.77 1020.90 1020.96 1021.03 1021.01 1020.94 1020.72 1020.46 1020.16 1019.51 1018.92 1018.26 1017.75 1017.34 1016.83 1016.33 1015.94 1015.44 1014.88 1014.31
1012.22 1012.07 1012.30 1011.70 1011.33 1011.66 1011.86 1012.12 1012.59 1013.64 1014.38 1014.93 1015.42 1016.22 1016.68 1017.11 1017.73 1018.26 1018.95 1019.54 1020.01 1020.30 1020.58 1020.87 1021.16 1021.36 1021.44 1021.36 1021.30 1021.24 1021.13 1020.96 1020.57 1019.90 1019.26 1018.70 1018.19 1017.75 1017.28 1016.74 1016.03 1015.52 1014.92 1014.28
Wind_Speed
4 5 12 16 14 3 5 4 5 3 1 2 7 7 13 6 1 3 2 3 3 3 2 4 6 6 8 8 9 7 7 5 3 2 2 1 0 1 1 2 2 3 3 3
3 16 10 6 7 5 4 4 5 3 1 1 5 12 12 6 4 4 2 0 2 1 2 4 6 7 6 6 7 6 6 5 3 2 2 2 1 1 1 1 1 3 4 4
10 4 13 13 6 8 5 8 5 4 0 2 5 9 5 2 2 3 3 1 1 1 1 1 3 4 3 4 4 5 5 5 3 3 2 1 1 0 0 0 1 2 3 2
9 3 5 8 9 8 7 8 5 4 4 5 2 8 6 4 5 5 5 4 4 2 1 1 0 2 3 3 3 4 5 5 3 4 2 2 2 2 1 1 1 3 3 0
9 6 8 5 5 10 2 5 6 4 4 4 1 2 6 1 6 7 8 6 5 1 3 5 5 5 4 3 4 3 3 3 3 3 3 3 3 2 1 2 3 3 2 0
2 4 2 4 4 5 11 7 7 5 3 3 5 6 6 6 7 4 4 6 5 2 4 4 4 3 2 2 3 4 4 4 4 4 4 5 5 4 3 3 3 3 2 1
4 3 4 3 10 3 3 8 2 0 2 8 1 1 10 5 6 4 9 7 2 2 3 4 5 5 4 5 6 5 5 5 5 5 4 5 5 5 5 4 3 3 2 1
10 5 11 6 5 9 6 5 6 8 5 3 2 9 9 5 1 1 1 2 3 1 3 5 5 5 5 5 4 5 5 5 5 5 5 4 5 3 3 4 3 3 2 2
8 6 3 2 3 5 6 7 4 7 2 4 4 7 8 4 1 1 2 6 5 1 3 5 6 4 4 5 5 5 4 4 5 5 3 4 3 4 4 5 3 2 3 3
6 4 3 4 4 1 4 5 5 1 4 5 4 6 8 5 8 4 3 7 4 1 3 4 5 5 4 4 5 4 2 4 3 3 3 4 4 4 3 2 4 3 3 3
6 4 4 6 7 8 5 4 1 4 3 7 1 9 7 8 9 10 8 6 5 3 3 4 5 5 4 2 3 5 3 3 3 4 3 4 4 4 3 3 4 4 3 4
4 4 5 4 3 1 2 6 5 5 5 1 4 9 1 5 6 7 7 4 2 3 3 4 4 6 5 4 5 5 3 4 5 4 4 5 4 3 3 4 4 3 5 4
8 5 6 2 1 3 5 5 4 4 3 7 7 7 2 1 1 4 5 4 3 3 1 4 5 5 6 5 4 6 5 6 4 3 5 5 5 3 5 5 5 5 5 4
12 3 5 7 4 5 6 8 8 5 4 6 8 3 3 6 6 5 5 4 4 5 3 3 5 5 5 5 4 5 6 3 4 3 4 5 5 5 5 5 5 5 4 4
5 4 3 3 5 3 4 7 14 14 5 9 3 9 5 12 12 8 5 2 2 4 3 3 4 5 5 6 6 3 4 4 2 3 5 7 5 4 4 5 5 5 3 4
3 3 2 3 2 4 1 4 4 7 2 7 3 9 8 0 1 2 6 4 3 5 5 4 4 5 4 5 6 6 4 5 1 2 5 4 4 3 6 5 5 3 4 5
4 5 2 2 2 1 6 11 12 7 6 13 12 11 7 3 5 5 5 6 6 5 1 3 5 5 5 4 5 6 7 4 2 3 3 4 4 5 5 5 4 5 6 5
5 4 3 2 3 2 6 1 1 10 5 10 2 4 5 4 3 3 4 7 5 3 3 4 3 4 4 4 4 6 5 5 3 2 3 3 3 4 5 4 5 5 4 6
2 4 4 5 4 6 2 4 6 7 8 12 17 4 2 1 3 3 6 4 5 5 4 4 3 3 4 4 6 5 4 4 4 4 3 4 5 6 5 5 5 5 5 5
4 6 5 3 5 8 8 3 4 3 6 2 3 8 8 7 2 5 5 4 2 3 3 2 3 1 3 4 5 5 5 5 6 7 7 6 6 6 7 7 7 5 5 8
3 2 4 2 2 9 6 3 5 5 7 1 3 5 7 5 4 4 2 2 2 3 1 1 1 2 4 4 4 4 5 4 7 8 8 7 6 7 7 7 6 6 6 7
4 5 3 3 3 8 5 5 6 4 1 1 2 3 4 4 2 3 3 3 3 2 1 1 3 3 4 4 5 5 4 7 7 7 8 7 6 6 5 6 6 5 5 6
2 5 5 7 5 3 4 3 2 3 5 5 4 4 6 6 5 6 5 5 3 3 2 3 3 3 4 4 4 5 6 7 7 7 6 5 6 6 6 5 6 4 3 4
4 3 1 3 2 5 4 2 2 5 4 5 4 6 6 6 7 6 5 4 2 1 2 2 3 3 3 4 5 4 6 7 6 6 7 6 5 7 5 4 4 4 4 4
3 4 2 5 5 3 6 6 7 5 2 6 5 5 6 8 6 5 4 3 2 0 1 2 3 3 4 4 5 4 6 6 6 6 6 6 5 5 6 5 5 5 5 6
5 6 5 6 4 2 2 1 7 9 8 8 7 5 4 5 7 5 4 3 2 1 1 2 2 3 4 4 5 5 4 5 5 6 5 5 5 5 5 5 7 10 11 12
Wind_Direction
201 169 200 200 202 118 142 176 209 216 164 233 234 261 270 299 283 333 10 11 20 41 347 26 41 58 76 65 89 103 116 124 116 95 108 84 325 334 348 1 54 53 23 19
127 234 211 183 180 191 168 184 224 272 156 264 325 275 257 244 217 191 220 283 35 82 46 37 46 51 65 105 112 120 127 135 116 116 136 131 159 224 259 306 52 37 29 13
192 197 195 183 163 184 213 208 182 217 24 39 332 283 262 228 167 186 188 178 196 225 304 40 66 87 103 115 137 143 150 146 129 123 107 82 39 25 318 273 318 350 2 20
246 208 143 188 201 156 213 185 146 139 108 243 4 281 290 217 228 212 203 192 188 152 50 357 273 193 186 197 169 155 155 156 155 148 131 181 196 226 220 217 261 307 327 6
212 194 167 181 186 165 196 112 109 94 92 34 214 46 261 81 246 223 214 205 204 202 317 292 282 256 233 181 190 178 167 181 160 174 175 183 224 227 249 268 280 288 295 350
324 305 177 167 68 121 142 89 64 59 80 298 204 171 257 194 212 170 167 184 192 311 315 303 302 263 233 184 189 196 197 215 190 190 193 200 223 244 250 257 265 267 255 238
134 191 307 151 89 105 121 143 139 190 182 229 243 127 256 240 216 199 168 176 162 298 318 316 315 308 282 240 226 213 214 228 205 206 212 218 226 232 241 248 245 250 245 238
175 214 167 185 165 176 184 170 166 193 201 222 102 231 251 220 185 310 338 199 231 283 333 317 308 293 284 269 250 231 213 226 203 212 230 226 234 227 242 242 241 239 206 215
174 217 100 111 116 145 167 203 119 101 46 49 208 281 289 143 5 26 216 167 171 191 338 334 323 311 315 300 285 241 219 228 217 217 221 224 227 236 241 251 239 222 238 223
172 120 169 120 116 45 208 159 136 129 171 233 276 274 244 213 217 211 228 199 193 155 353 336 331 330 324 332 319 298 260 227 238 220 211 233 232 229 233 249 249 229 233 242
130 119 126 143 205 162 153 189 147 120 127 166 192 258 212 209 191 184 199 198 212 243 276 303 306 322 304 307 317 291 295 273 272 256 241 243 238 230 232 243 241 230 238 235
180 120 153 177 237 189 96 185 169 146 218 151 142 271 265 249 192 161 185 192 217 207 249 285 311 316 326 348 340 297 286 267 247 250 244 243 238 225 242 249 241 249 234 230
176 153 118 77 351 176 204 182 141 119 95 198 143 257 357 23 312 224 196 231 233 210 275 324 346 332 314 321 327 317 307 271 257 234 246 252 245 229 242 243 239 248 231 230
153 117 169 177 175 136 180 185 185 152 139 166 220 269 290 246 228 228 234 249 240 233 238 296 319 306 304 307 299 315 308 287 281 239 234 250 250 236 236 238 243 245 220 236
119 146 121 70 71 50 162 185 188 205 186 190 248 207 224 208 209 212 190 242 292 287 289 280 290 304 312 325 316 307 295 305 224 245 240 238 237 254 255 249 247 253 239 240
91 116 150 97 43 60 235 203 191 231 234 280 155 264 225 259 39 198 206 174 226 237 244 271 287 297 308 310 308 307 296 308 317 242 267 272 262 238 248 251 241 227 247 256
114 139 140 138 339 307 295 197 188 194 213 216 224 241 156 223 226 207 210 201 214 224 241 268 270 273 291 291 318 313 309 297 320 293 277 276 270 267 255 248 241 239 232 217
120 107 71 139 23 289 248 214 162 234 243 231 306 224 186 182 197 167 180 174 204 226 257 267 260 301 303 311 315 311 317 323 342 359 331 318 294 286 281 265 252 249 225 228
52 115 92 142 192 300 326 245 159 162 277 214 226 175 203 180 121 261 178 150 176 193 221 223 226 245 300 323 315 312 326 330 345 350 335 330 327 311 297 281 265 253 243 241
53 72 104 96 150 208 240 254 183 188 293 271 186 160 161 169 122 251 184 131 195 231 223 236 296 287 316 319 327 324 337 342 351 341 332 325 320 314 307 296 290 274 245 262
103 80 143 162 218 285 237 189 180 106 240 231 188 177 154 174 188 162 102 121 200 191 249 222 0 306 291 325 332 329 329 346 334 329 323 322 319 313 300 300 300 294 284 275
158 144 181 92 76 281 168 111 171 212 63 164 185 198 126 132 109 116 145 170 164 149 86 19 10 355 3 2 341 337 339 335 330 326 317 317 310 309 312 302 298 287 283 281
256 185 186 190 216 260 224 192 219 162 150 197 179 182 148 137 173 165 170 170 155 99 67 38 6 348 8 7 351 339 338 335 328 321 309 304 310 314 318 309 306 305 287 281
247 177 190 46 280 238 228 233 216 189 188 155 158 150 164 154 157 161 163 146 98 57 29 13 1 356 340 360 351 338 334 335 321 307 309 317 320 321 319 312 306 304 297 290
186 132 190 276 269 338 250 220 191 183 180 128 113 152 160 138 156 161 142 138 161 219 16 19 354 333 324 340 332 332 342 333 326 318 318 327 328 322 324 322 316 311 288 288
178 186 174 226 216 143 278 272 160 156 173 167 144 133 130 152 151 142 154 160 171 229 4 341 327 315 304 317 311 315 333 335 326 326 329 330 328 333 334 331 325 334 338 336